Theta_e
304 305 303 301 299 299 298 299 296 297 298 305 307 307 308 308 308 306 305 305 305 304 303 302 302 302 303 303 304 303 303 302 302 303 306 305 305 305 307 306 306 306 305 305
300 304 303 299 301 300 299 299 298 299 298 308 309 308 306 306 306 304 304 304 304 303 302 300 300 301 302 303 303 303 301 301 302 303 303 302 302 303 304 305 305 306 306 306
297 302 300 296 300 301 301 301 301 296 304 308 306 305 306 306 305 304 303 303 302 301 300 300 299 302 301 303 303 302 301 301 302 303 302 303 304 304 305 308 307 307 307 306
298 300 290 302 306 303 300 302 304 303 303 306 306 306 306 307 305 304 303 302 300 300 300 300 301 301 302 302 302 301 300 301 302 302 303 304 305 306 308 310 309 308 308 308
298 295 299 301 303 301 299 299 305 304 305 305 307 306 305 307 305 303 302 302 300 300 299 301 301 301 301 301 302 300 301 302 303 304 304 304 306 308 310 311 310 310 311 306
299 293 289 302 306 308 306 295 307 307 305 304 306 298 300 304 304 302 301 301 299 299 300 301 301 302 301 301 301 301 302 303 304 305 307 308 310 311 312 311 311 307 309 308
298 295 298 306 307 308 293 299 308 307 307 306 303 305 305 305 303 301 300 299 300 299 299 300 302 302 300 301 300 303 305 305 306 308 310 310 310 310 313 313 313 312 311 311
299 296 292 310 307 300 309 312 310 308 308 307 307 306 304 303 300 300 298 299 299 299 299 301 302 302 300 301 303 305 306 306 307 307 308 308 307 305 306 305 308 307 311 305
305 304 313 313 312 316 315 310 309 310 309 308 306 305 303 301 299 298 299 299 300 300 300 302 303 303 302 304 306 306 306 307 307 306 305 307 303 301 299 299 300 302 300 300
307 310 312 312 315 314 312 311 312 312 309 307 305 304 302 300 299 299 300 299 300 301 300 301 303 304 306 307 307 307 307 308 308 306 304 304 302 301 298 295 296 296 299 298
305 308 310 311 313 313 312 313 311 310 308 306 307 304 301 300 299 300 301 301 302 301 301 302 304 305 307 307 309 307 308 309 310 308 306 303 303 302 301 296 293 296 295 298
302 310 312 310 316 313 311 310 310 308 306 307 306 303 301 300 300 301 301 303 304 304 304 305 305 305 306 307 307 308 308 305 305 308 307 308 305 299 291 292 290 290 290 293
308 313 313 314 318 314 312 311 310 308 307 306 305 303 302 300 302 303 303 305 305 305 305 305 304 304 305 306 307 307 307 308 307 306 306 308 307 307 301 294 292 291 290 290
312 314 311 313 312 313 312 312 310 309 308 306 303 304 303 302 303 303 304 305 305 305 304 304 303 303 305 307 308 308 309 298 304 308 307 305 306 307 305 304 301 298 292 291
313 315 312 313 313 312 312 310 307 305 305 303 304 303 302 302 303 304 305 305 305 304 303 303 303 304 307 309 306 306 303 304 306 306 307 304 304 305 303 304 304 302 301 296
312 311 312 310 310 310 309 307 305 305 304 302 302 303 303 304 305 305 305 305 304 304 305 305 305 306 307 308 309 310 306 299 298 304 305 305 304 303 303 304 304 303 300 300
309 307 309 308 308 308 307 307 307 306 304 302 302 303 303 304 305 305 304 307 307 307 307 307 306 307 307 308 311 309 307 308 302 303 304 303 303 304 304 303 302 302 302 300
313 312 312 310 308 308 308 307 307 306 303 303 304 304 302 303 304 305 306 308 307 306 308 308 307 307 311 308 310 308 307 304 304 304 304 303 304 304 303 302 302 302 302 301
313 311 311 311 311 309 308 307 307 306 305 304 303 302 302 303 305 307 308 306 305 305 307 310 300 304 311 308 305 304 306 304 304 304 304 300 304 304 303 303 302 303 302 301
312 312 311 310 310 309 307 307 308 305 305 304 304 303 302 304 306 306 308 306 308 309 312 311 309 311 310 308 301 304 305 305 304 304 304 303 304 304 304 297 300 302 303 303
311 311 310 308 307 307 307 308 306 304 304 305 304 303 302 304 306 307 307 304 312 310 312 303 308 309 307 301 301 304 305 305 304 304 304 304 305 304 304 304 304 303 304 304
311 310 309 307 306 306 308 308 306 305 304 305 305 305 305 303 305 306 309 309 311 299 305 307 308 295 300 290 303 305 305 305 305 305 305 305 305 304 304 304 303 303 304 305
311 310 308 307 306 307 307 306 305 304 304 305 305 305 305 304 305 304 305 311 311 302 307 307 292 290 289 302 304 306 305 305 305 305 306 305 305 305 305 304 304 304 305 304
311 309 308 308 308 307 304 305 306 305 305 305 306 307 307 306 307 310 311 299 295 298 305 304 298 290 286 303 305 306 305 306 305 305 305 295 306 306 306 306 305 305 305 304
310 309 308 307 307 305 305 305 305 304 305 306 306 307 308 310 309 309 311 310 295 301 306 290 290 290 301 305 306 306 306 305 304 305 306 306 306 305 305 305 305 304 304 305
310 307 308 309 308 306 305 305 303 303 304 304 305 307 308 309 310 310 312 305 308 302 307 305 304 304 305 305 306 306 306 305 304 304 303 305 304 304 303 302 302 302 302 303
309 304 308 307 306 306 305 304 303 303 303 304 304 307 308 309 309 307 304 308 307 306 307 308 306 302 306 307 307 306 306 305 297 302 302 301 300 300 300 300 300 301 300 299
Wind_Speed
13 17 8 10 12 11 10 9 10 11 10 11 8 6 12 9 5 5 7 9 11 10 9 9 10 9 8 9 10 10 11 11 11 8 11 12 12 11 12 12 11 12 10 11
12 12 15 9 12 11 11 9 11 10 5 14 11 8 5 4 8 7 9 12 10 9 9 8 7 8 8 9 9 8 10 8 9 10 10 9 9 10 9 7 8 8 8 10
9 14 8 7 8 7 10 1 3 6 8 7 3 4 8 9 7 8 9 10 6 8 7 6 7 8 8 8 9 9 7 7 8 8 8 8 8 8 8 7 7 7 8 9
8 9 10 1 2 3 7 3 2 2 2 7 9 7 4 9 6 8 8 7 7 5 6 5 6 7 7 6 8 6 6 6 7 8 8 7 7 5 5 4 4 4 5 6
3 6 10 10 6 2 1 7 3 4 6 4 7 2 12 9 11 10 7 6 5 6 5 5 5 6 5 6 7 7 6 7 6 6 6 5 6 7 7 5 4 3 4 7
4 4 4 9 8 5 4 6 10 9 3 2 5 4 6 11 10 9 7 7 5 4 3 3 5 5 4 5 6 6 5 4 4 5 7 5 6 4 4 5 3 3 1 5
7 4 7 7 9 3 3 3 9 5 5 5 5 7 11 10 12 9 6 5 3 3 3 4 3 3 3 4 5 2 4 4 5 3 4 5 6 7 4 4 1 2 3 4
9 10 10 12 7 3 7 6 5 3 7 8 8 7 13 11 10 7 6 6 5 4 4 3 2 1 3 4 1 1 2 4 5 3 5 6 10 11 11 12 7 7 5 5
1 2 5 7 5 9 7 6 5 7 7 7 6 11 11 11 8 7 6 6 4 4 4 3 2 3 5 3 4 2 5 6 8 7 8 8 8 10 9 10 9 9 8 9
1 5 6 8 7 5 3 7 8 10 7 5 7 14 13 9 7 7 6 6 3 5 7 6 1 1 1 2 3 6 2 3 5 5 5 6 5 5 6 6 6 7 7 6
8 8 7 9 11 7 6 10 9 8 6 6 12 13 12 8 8 7 7 6 5 5 6 5 4 2 2 1 2 4 3 4 0 5 6 4 3 3 4 3 2 4 4 5
5 4 9 5 13 12 11 10 9 8 7 7 13 13 11 8 8 8 8 7 8 8 6 5 3 5 5 5 5 7 3 3 3 3 3 2 6 4 5 3 3 7 4 2
3 4 3 4 14 14 12 11 10 8 9 13 12 10 10 10 10 7 7 7 7 7 7 5 4 4 3 2 3 4 3 5 4 3 5 2 3 2 4 4 7 8 10 8
2 9 8 8 11 11 11 11 8 9 10 12 11 8 10 10 9 9 8 7 7 7 6 5 4 3 1 3 3 5 1 6 5 2 3 5 4 3 3 2 3 6 9 10
8 8 8 9 11 11 12 11 11 10 13 11 9 9 11 12 10 10 9 8 7 6 6 5 5 3 2 3 2 3 5 5 6 7 0 4 5 4 4 3 3 3 5 2
12 9 11 12 12 13 13 12 11 12 12 10 9 10 10 11 9 8 8 8 7 5 4 3 3 3 1 3 3 4 4 5 6 6 4 5 4 5 5 4 3 3 5 5
12 12 13 12 13 13 12 11 10 12 13 11 9 8 11 10 9 8 9 9 6 5 3 4 3 2 2 1 4 5 3 5 7 6 4 5 7 5 4 4 4 5 4 2
13 11 11 12 13 13 11 10 8 14 14 12 10 10 10 9 10 9 9 6 6 5 4 4 4 2 8 1 4 6 8 2 4 4 3 4 3 6 6 7 7 4 5 3
14 14 13 12 13 12 10 9 9 13 13 12 11 11 10 10 10 6 8 8 7 7 6 6 4 6 9 2 3 6 8 3 5 5 4 4 3 5 3 3 5 6 5 5
14 13 12 10 11 11 10 9 13 13 12 12 11 10 10 10 10 8 9 8 7 2 7 6 5 6 3 5 6 7 10 2 4 4 2 4 4 4 5 2 4 5 4 4
12 12 12 10 10 10 10 11 12 12 11 11 11 11 11 7 8 8 8 8 6 6 4 5 6 4 6 3 5 9 3 4 5 4 5 4 5 5 7 6 6 7 4 4
12 11 11 11 10 10 11 13 11 11 11 10 11 11 10 9 9 9 9 7 7 9 6 8 7 2 3 7 7 8 6 5 4 4 5 6 6 5 5 5 6 6 5 6
12 12 11 11 11 11 13 10 11 10 10 8 11 11 10 7 6 8 8 7 5 7 7 5 4 3 3 5 8 4 4 3 3 3 3 4 6 6 5 5 5 6 5 3
12 12 11 11 11 12 12 8 8 8 7 7 9 10 9 8 7 8 7 5 8 9 4 3 1 2 3 7 10 1 2 6 9 7 8 5 7 8 8 9 9 8 7 9
12 11 11 11 12 9 11 10 8 5 5 5 8 10 11 7 6 7 5 6 11 6 7 6 5 6 6 9 2 6 10 9 7 8 8 8 9 9 9 10 10 9 7 7
11 9 9 10 10 10 9 9 7 6 5 5 5 8 8 6 4 3 5 5 9 8 8 7 6 6 8 5 8 9 9 9 9 9 9 9 10 10 10 10 10 10 10 8
9 8 8 7 9 9 9 10 7 7 6 6 6 8 8 8 7 6 7 5 8 8 9 7 8 1 5 8 9 9 9 8 9 8 9 9 9 9 9 9 9 9 10 10
Wind_Direction
274 271 284 287 283 290 284 271 269 285 314 107 149 108 66 74 80 27 9 16 48 36 27 23 10 8 360 5 19 8 12 3 354 341 15 13 11 1 17 26 21 18 17 22
269 296 278 241 277 281 272 287 294 299 284 72 67 70 63 32 33 10 18 41 30 23 25 9 3 1 355 6 6 19 10 5 357 2 19 14 9 16 16 6 22 28 17 30
276 290 295 285 296 302 281 237 324 303 64 108 135 58 43 39 29 24 32 41 15 31 32 358 356 351 356 356 7 15 18 9 9 11 21 16 18 22 10 23 49 25 29 41
272 297 283 52 80 313 302 302 148 230 86 65 67 41 22 77 46 46 37 29 30 30 8 360 351 356 355 349 15 21 18 14 22 16 13 12 24 4 9 26 54 51 29 45
248 294 296 249 155 193 218 282 192 202 119 136 125 249 76 63 72 65 56 45 47 29 355 345 351 355 337 2 27 25 23 18 24 11 28 8 357 351 352 17 9 25 54 43
240 210 273 105 129 134 95 270 82 94 94 100 48 313 102 87 85 83 72 49 29 18 334 341 19 350 8 14 42 30 36 14 358 340 328 341 321 339 305 302 288 281 358 66
211 242 257 147 132 126 233 104 102 75 78 51 63 69 103 104 85 82 69 42 46 50 22 18 353 359 32 28 49 6 358 344 316 303 359 335 317 302 339 319 22 14 103 138
223 234 242 131 142 252 100 102 105 92 83 104 100 111 105 101 94 90 80 83 57 51 59 49 11 5 91 90 93 247 274 245 271 337 357 39 23 7 13 359 11 14 36 63
69 189 83 114 93 104 133 141 119 118 98 106 138 130 127 111 109 111 103 95 67 65 89 74 94 119 115 124 191 189 267 53 59 42 18 4 61 27 15 5 6 11 16 12
191 150 163 151 106 131 171 136 115 110 124 149 138 128 117 115 125 128 120 102 83 95 104 113 128 59 131 196 247 266 57 109 129 106 76 35 32 69 36 18 9 17 1 22
242 209 159 185 156 168 117 107 120 124 134 131 128 129 126 139 134 144 124 140 156 128 116 134 187 214 263 120 131 99 17 339 91 159 144 142 103 21 74 49 5 21 4 1
228 251 171 202 159 159 140 151 146 136 126 134 124 131 143 137 150 153 163 187 163 151 152 179 177 72 57 48 37 0 12 70 353 2 10 18 165 149 34 72 282 299 254 63
282 149 152 79 130 149 153 163 148 151 140 121 124 145 143 142 158 167 158 225 144 125 117 119 124 108 81 41 39 83 349 324 348 352 358 345 336 145 173 230 261 274 281 277
139 115 130 158 141 146 152 134 134 136 131 129 136 152 136 159 167 157 193 140 147 144 139 140 131 112 35 341 19 349 301 250 305 23 10 328 336 349 39 176 189 198 238 245
160 172 163 150 144 149 136 137 157 156 126 136 150 142 161 163 178 177 144 158 154 151 156 170 154 140 49 312 338 56 7 5 335 319 68 280 301 348 26 29 8 58 47 291
163 188 148 163 159 152 158 175 171 156 145 147 153 163 168 173 185 169 155 156 171 169 151 115 81 63 36 294 308 279 152 252 264 292 307 355 0 359 5 351 356 40 83 19
179 186 164 165 162 166 181 185 188 155 146 154 162 168 166 181 192 190 167 192 146 150 115 88 76 59 135 264 290 302 272 195 242 285 11 33 346 346 344 349 5 6 99 126
178 180 173 179 167 174 181 184 177 142 155 157 163 165 165 187 192 185 184 162 161 161 152 119 85 322 301 21 352 312 299 11 301 310 27 14 342 308 13 354 351 15 9 152
175 177 178 184 168 163 171 170 165 146 149 156 164 167 174 188 195 215 177 192 185 182 173 137 182 248 259 142 279 290 288 319 325 338 30 337 256 315 338 9 343 340 27 9
183 174 166 153 149 154 157 165 139 146 148 160 167 168 177 182 202 227 184 205 207 142 137 133 229 264 256 178 229 275 282 20 333 337 350 326 336 326 326 320 289 353 16 14
170 146 143 147 142 149 153 144 152 150 160 178 163 174 178 173 210 207 200 212 173 151 148 174 252 299 91 329 301 277 310 10 333 349 330 349 339 351 352 346 0 359 9 8
147 149 149 140 152 147 147 138 153 159 175 176 167 171 166 179 189 214 247 242 155 155 205 230 183 115 349 331 289 304 19 21 347 349 11 3 337 353 336 352 16 325 6 28
149 151 143 154 152 149 132 153 154 174 178 182 165 172 167 174 184 205 214 234 172 183 237 87 132 154 351 288 275 298 66 352 309 353 43 17 328 332 342 13 338 339 13 2
146 143 149 151 151 139 143 151 158 166 186 187 169 177 181 177 183 213 214 90 114 164 215 120 218 285 312 284 277 305 0 46 29 1 13 4 359 4 10 9 13 18 0 34
143 149 152 159 152 147 153 159 160 173 190 199 161 162 187 212 198 191 199 179 130 200 213 176 231 270 271 275 359 41 56 46 29 357 4 14 9 2 9 7 358 359 4 20
150 157 163 174 165 151 157 163 171 180 177 181 179 182 182 194 241 207 214 155 175 212 256 165 209 221 255 27 58 55 63 37 20 11 15 18 10 8 10 2 355 356 352 11
160 154 153 176 120 147 154 163 167 173 182 192 201 180 185 178 203 197 165 208 176 204 229 194 181 196 61 78 64 55 46 54 40 19 25 21 12 17 9 1 358 360 10 6